Location: Courçay
(47.2523°N, 0.8761°E)
Time: 21:07:15
(UTC+00:00)

Cosmos 1943 Rocket - Pass Details

Date: 18 November 2025
Orbit: 812 x 841 km, 71.0° (Epoch: 10 December)

Event Time Altitude Azimuth Distance (km) Brightness Sun altitude
Rises 17:21:07 0° 198° (SSW) 3,372 5.9 -10.7°
Reaches altitude 10° 17:23:33 10° 196° (SSW) 2,438 5.1 -11.1°
Maximum altitude 17:29:07 71° 113° (ESE) 878 2.1 -12.0°
Drops below altitude 10° 17:34:40 10° 31° (NNE) 2,436 4.2 -13.0°
Enters shadow 17:35:18 - 30° (NNE) 2,678 4.4 -13.1°
